EXPRESS-AM8

Last updated on Tue Oct 08 2024 00:02:40 GMT+0000 (Coordinated Universal Time)

1 40895U 15048A 24281.32576206 -.00000100 00000+0 00000+0 0 9992 2 40895 0.0170 251.2394 0000422 243.6777 344.8500 1.00274531 33155
UTC large
Height (km)
Speed (km/s)
/
Latitude / Longitude
Inclination (degrees)
Orbital Period (minutes)
Azimuth
Elevation
Range (km)
Doppler Factor

Next 0 passes for location: London (51.5072 / 0.1276)

Sorry there are no passes over London.